User: anonymous
Location: Caltech
(34.1382°N, 118.1253°W)
Time: 05:05:47
(UTC-07:00)
Language:

SO-50 - Orbit

View from above orbital plane
View from above orbital plane
View from above satellite
View from above satellite

Ground track
Ground track

The orbit data is extracted from the following two-line orbital elements,

1 27607U 02058C   14232.47853816  .00000216  00000-0  53267-4 0  4789
2 27607 064.5574 036.3459 0055546 352.9150 007.1159 14.73862872626954
Epoch (UTC): 20 August 2014 11:29:05
Eccentricity: 0.0055546
inclination: 64.5574°
perigee height: 610 km
apogee height: 688 km
right ascension of ascending node: 36.3459°
argument of perigee: 352.9150°
revolutions per day: 14.73862872
mean anomaly at epoch: 7.1159°
orbit number at epoch: 62695

The dashed part of the orbit path shows where the satellite is in the earth's shadow,  

DLR